Time,TemperatureF,DewpointF,PressureIn,WindDirection,WindDirectionDegrees,WindSpeedMPH,WindSpeedGustMPH,Humidity,HourlyPrecipIn,Conditions,Clouds,dailyrainin,SoftwareType,DateUTC
2013-12-19 00:00:00,63.0,-99.9,30.09,SE,140,14.0,15.0,-999,-99.99,,,-99.99,,2013-12-19 06:00:00,
2013-12-19 00:42:00,63.0,-99.9,30.09,SE,140,14.0,15.0,-999,-99.99,,,-99.99,,2013-12-19 06:42:00,
2013-12-19 00:52:00,63.0,-99.9,30.09,SE,140,14.0,15.0,-999,-99.99,,,-99.99,,2013-12-19 06:52:00,
2013-12-19 01:00:00,62.0,-99.9,30.07,SSE,150,14.0,15.0,-999,-99.99,,,-99.99,,2013-12-19 07:00:00,
2013-12-19 01:42:00,62.0,-99.9,30.07,SSE,150,14.0,15.0,-999,-99.99,,,-99.99,,2013-12-19 07:42:00,
2013-12-19 01:52:00,62.0,-99.9,30.07,SSE,150,14.0,15.0,-999,-99.99,,,-99.99,,2013-12-19 07:52:00,
2013-12-19 02:00:00,62.0,-99.9,30.03,SE,140,15.0,15.0,-999,-99.99,,,-99.99,,2013-12-19 08:00:00,
2013-12-19 02:42:00,62.0,-99.9,30.03,SE,140,15.0,15.0,-999,-99.99,,,-99.99,,2013-12-19 08:42:00,
2013-12-19 02:52:00,62.0,-99.9,30.03,SE,140,15.0,15.0,-999,-99.99,,,-99.99,,2013-12-19 08:52:00,
2013-12-19 03:00:00,62.0,-99.9,30.02,SSE,150,14.0,14.0,-999,-99.99,,,-99.99,,2013-12-19 09:00:00,
2013-12-19 03:43:00,62.0,-99.9,30.02,SSE,150,14.0,14.0,-999,-99.99,,,-99.99,,2013-12-19 09:43:00,
2013-12-19 03:54:00,62.0,-99.9,30.02,SSE,150,14.0,14.0,-999,-99.99,,,-99.99,,2013-12-19 09:54:00,
2013-12-19 04:00:00,63.0,-99.9,30.01,SSE,160,13.0,14.0,-999,-99.99,,,-99.99,,2013-12-19 10:00:00,
2013-12-19 04:43:00,63.0,-99.9,30.01,SSE,160,13.0,14.0,-999,-99.99,,,-99.99,,2013-12-19 10:43:00,
2013-12-19 04:53:00,63.0,-99.9,30.01,SSE,160,13.0,14.0,-999,-99.99,,,-99.99,,2013-12-19 10:53:00,
2013-12-19 05:00:00,63.0,-99.9,30.00,SSE,150,13.0,13.0,-999,-99.99,,,-99.99,,2013-12-19 11:00:00,
2013-12-19 05:42:00,63.0,-99.9,30.00,SSE,150,13.0,13.0,-999,-99.99,,,-99.99,,2013-12-19 11:42:00,
2013-12-19 05:53:00,63.0,-99.9,30.00,SSE,150,13.0,13.0,-999,-99.99,,,-99.99,,2013-12-19 11:53:00,
2013-12-19 06:00:00,63.0,-99.9,29.98,SSE,150,13.0,14.0,-999,-99.99,,,-99.99,,2013-12-19 12:00:00,
2013-12-19 06:42:00,63.0,-99.9,29.98,SSE,150,13.0,14.0,-999,-99.99,,,-99.99,,2013-12-19 12:42:00,
2013-12-19 06:52:00,63.0,-99.9,29.98,SSE,150,13.0,14.0,-999,-99.99,,,-99.99,,2013-12-19 12:52:00,
2013-12-19 07:00:00,63.0,-99.9,29.97,SSE,150,14.0,15.0,-999,-99.99,,,-99.99,,2013-12-19 13:00:00,
2013-12-19 07:42:00,63.0,-99.9,29.97,SSE,150,14.0,15.0,-999,-99.99,,,-99.99,,2013-12-19 13:42:00,
2013-12-19 07:52:00,63.0,-99.9,29.97,SSE,150,14.0,15.0,-999,-99.99,,,-99.99,,2013-12-19 13:52:00,
2013-12-19 08:00:00,63.0,-99.9,29.98,SE,140,14.0,15.0,-999,-99.99,,,-99.99,,2013-12-19 14:00:00,
2013-12-19 08:42:00,63.0,-99.9,29.98,SE,140,14.0,15.0,-999,-99.99,,,-99.99,,2013-12-19 14:42:00,
2013-12-19 08:53:00,63.0,-99.9,29.98,SE,140,14.0,15.0,-999,-99.99,,,-99.99,,2013-12-19 14:53:00,
2013-12-19 09:00:00,65.0,-99.9,30.01,SSE,150,10.0,10.0,-999,-99.99,,,-99.99,,2013-12-19 15:00:00,
2013-12-19 09:43:00,65.0,-99.9,30.01,SSE,150,10.0,10.0,-999,-99.99,,,-99.99,,2013-12-19 15:43:00,
2013-12-19 09:54:00,65.0,-99.9,30.01,SSE,150,10.0,10.0,-999,-99.99,,,-99.99,,2013-12-19 15:54:00,
2013-12-19 10:00:00,64.0,-99.9,30.01,SSE,150,11.0,11.0,-999,-99.99,,,-99.99,,2013-12-19 16:00:00,
2013-12-19 10:43:00,64.0,-99.9,30.01,SSE,150,11.0,11.0,-999,-99.99,,,-99.99,,2013-12-19 16:43:00,
2013-12-19 10:53:00,64.0,-99.9,30.01,SSE,150,11.0,11.0,-999,-99.99,,,-99.99,,2013-12-19 16:53:00,
2013-12-19 11:00:00,63.0,-99.9,30.00,South,170,13.0,13.0,-999,-99.99,,,-99.99,,2013-12-19 17:00:00,
2013-12-19 11:42:00,63.0,-99.9,30.00,South,170,13.0,13.0,-999,-99.99,,,-99.99,,2013-12-19 17:42:00,
2013-12-19 11:53:00,63.0,-99.9,30.00,South,170,13.0,13.0,-999,-99.99,,,-99.99,,2013-12-19 17:53:00,
2013-12-19 12:00:00,62.0,-99.9,29.98,SSE,160,10.0,10.0,-999,-99.99,,,-99.99,,2013-12-19 18:00:00,
2013-12-19 12:42:00,62.0,-99.9,29.98,SSE,160,10.0,10.0,-999,-99.99,,,-99.99,,2013-12-19 18:42:00,
2013-12-19 12:52:00,62.0,-99.9,29.98,SSE,160,10.0,10.0,-999,-99.99,,,-99.99,,2013-12-19 18:52:00,
2013-12-19 13:00:00,63.0,-99.9,29.93,SE,140,15.0,16.0,-999,-99.99,,,-99.99,,2013-12-19 19:00:00,
2013-12-19 13:42:00,63.0,-99.9,29.93,SE,140,15.0,16.0,-999,-99.99,,,-99.99,,2013-12-19 19:42:00,
2013-12-19 13:52:00,63.0,-99.9,29.93,SE,140,15.0,16.0,-999,-99.99,,,-99.99,,2013-12-19 19:52:00,
2013-12-19 14:00:00,63.0,-99.9,29.89,SSE,150,14.0,15.0,-999,-99.99,,,-99.99,,2013-12-19 20:00:00,
2013-12-19 14:42:00,63.0,-99.9,29.89,SSE,150,14.0,15.0,-999,-99.99,,,-99.99,,2013-12-19 20:42:00,
2013-12-19 14:52:00,63.0,-99.9,29.89,SSE,150,14.0,15.0,-999,-99.99,,,-99.99,,2013-12-19 20:52:00,
2013-12-19 15:00:00,63.0,-99.9,29.88,SSE,150,15.0,17.0,-999,-99.99,,,-99.99,,2013-12-19 21:00:00,
2013-12-19 15:22:00,63.0,-99.9,29.88,SSE,150,15.0,17.0,-999,-99.99,,,-99.99,,2013-12-19 21:22:00,
2013-12-19 15:33:00,63.0,-99.9,29.88,SSE,150,15.0,17.0,-999,-99.99,,,-99.99,,2013-12-19 21:33:00,
2013-12-19 15:43:00,63.0,-99.9,29.88,SSE,150,15.0,17.0,-999,-99.99,,,-99.99,,2013-12-19 21:43:00,
2013-12-19 15:53:00,63.0,-99.9,29.88,SSE,150,15.0,17.0,-999,-99.99,,,-99.99,,2013-12-19 21:53:00,
2013-12-19 17:00:00,64.0,-99.9,29.87,SSE,150,17.0,18.0,-999,-99.99,,,-99.99,,2013-12-19 23:00:00,
2013-12-19 17:42:00,64.0,-99.9,29.87,SSE,150,17.0,18.0,-999,-99.99,,,-99.99,,2013-12-19 23:42:00,
2013-12-19 17:53:00,64.0,-99.9,29.87,SSE,150,17.0,18.0,-999,-99.99,,,-99.99,,2013-12-19 23:53:00,
2013-12-19 18:00:00,63.0,-99.9,29.87,SE,140,15.0,16.0,-999,-99.99,,,-99.99,,2013-12-20 00:00:00,
2013-12-19 18:42:00,63.0,-99.9,29.87,SE,140,15.0,16.0,-999,-99.99,,,-99.99,,2013-12-20 00:42:00,
2013-12-19 18:53:00,63.0,-99.9,29.87,SE,140,15.0,16.0,-999,-99.99,,,-99.99,,2013-12-20 00:53:00,
2013-12-19 19:00:00,63.0,-99.9,29.87,SSE,150,17.0,18.0,-999,-99.99,,,-99.99,,2013-12-20 01:00:00,
2013-12-19 19:42:00,63.0,-99.9,29.87,SSE,150,17.0,18.0,-999,-99.99,,,-99.99,,2013-12-20 01:42:00,
2013-12-19 19:52:00,63.0,-99.9,29.87,SSE,150,17.0,18.0,-999,-99.99,,,-99.99,,2013-12-20 01:52:00,
2013-12-19 20:00:00,63.0,-99.9,29.88,SSE,160,14.0,14.0,-999,-99.99,,,-99.99,,2013-12-20 02:00:00,
2013-12-19 20:22:00,63.0,-99.9,29.88,SSE,160,14.0,14.0,-999,-99.99,,,-99.99,,2013-12-20 02:22:00,
2013-12-19 20:32:00,63.0,-99.9,29.88,SSE,160,14.0,14.0,-999,-99.99,,,-99.99,,2013-12-20 02:32:00,
2013-12-19 20:42:00,63.0,-99.9,29.88,SSE,160,14.0,14.0,-999,-99.99,,,-99.99,,2013-12-20 02:42:00,
2013-12-19 20:53:00,63.0,-99.9,29.88,SSE,160,14.0,14.0,-999,-99.99,,,-99.99,,2013-12-20 02:53:00,
2013-12-19 21:00:00,63.0,-99.9,29.88,SSE,150,15.0,16.0,-999,-99.99,,,-99.99,,2013-12-20 03:00:00,
2013-12-19 21:44:00,63.0,-99.9,29.88,SSE,150,15.0,16.0,-999,-99.99,,,-99.99,,2013-12-20 03:44:00,
2013-12-19 21:53:00,63.0,-99.9,29.88,SSE,150,15.0,16.0,-999,-99.99,,,-99.99,,2013-12-20 03:53:00,
2013-12-19 22:00:00,63.0,-99.9,29.88,SSE,150,17.0,18.0,-999,-99.99,,,-99.99,,2013-12-20 04:00:00,
2013-12-19 22:43:00,63.0,-99.9,29.88,SSE,150,17.0,18.0,-999,-99.99,,,-99.99,,2013-12-20 04:43:00,
2013-12-19 22:53:00,63.0,-99.9,29.88,SSE,150,17.0,18.0,-999,-99.99,,,-99.99,,2013-12-20 04:53:00,
2013-12-19 23:00:00,63.0,-99.9,29.89,SSE,160,15.0,15.0,-999,-99.99,,,-99.99,,2013-12-20 05:00:00,
2013-12-19 23:43:00,63.0,-99.9,29.89,SSE,160,15.0,15.0,-999,-99.99,,,-99.99,,2013-12-20 05:43:00,
2013-12-19 23:53:00,63.0,-99.9,29.89,SSE,160,15.0,15.0,-999,-99.99,,,-99.99,,2013-12-20 05:53:00,